International Skating Union - Official Site

Essent ISU World Cup Berlin
December 6-8, 2013

Draw | Lap Times | Index | World Cup

Referee: Ekaterina  PILSHCHIKOVA  (RUS)
Starter: Andrè  de VRIES  (NED)
StartTime: EndTime: Air Temp: Ice Temp: Humidity:
11:20 12:04 16.3℃ -4℃ 30.2
Result 3000m Ladies Division B
Rankings as of Dec 8 2013 5:18PM
Rank: No.: Name: Nation: Time: Behind: Points:
1 276 Jorien  ter Mors NED NED 4:02.23200m - 19.87 - (19.8)
600m - 50.85 - (30.9)
1000m - 1:22.67 - (31.8)
1400m - 1:54.17 - (31.5)
1800m - 2:25.36 - (31.1)
2200m - 2:56.67 - (31.3)
2600m - 3:28.92 - (32.2)
3000m - 4:02.23 - (33.3)
32
2 287 Natalia  Czerwonka POL POL 4:07.34200m - 19.71 - (19.7)
600m - 50.99 - (31.2)
1000m - 1:22.28 - (31.2)
1400m - 1:53.62 - (31.3)
1800m - 2:25.66 - (32.0)
2200m - 2:58.67 - (33.0)
2600m - 3:32.44 - (33.7)
3000m - 4:07.33 - (34.8)
5.11 27
3 206 Ivanie  Blondin CAN CAN 4:08.19200m - 20.38 - (20.3)
600m - 51.80 - (31.4)
1000m - 1:23.39 - (31.5)
1400m - 1:55.14 - (31.7)
1800m - 2:27.32 - (32.1)
2200m - 2:59.99 - (32.6)
2600m - 3:33.46 - (33.4)
3000m - 4:08.19 - (34.7)
5.96 23
4 284 Mari  Hemmer NOR NOR 4:08.85200m - 20.94 - (20.9)
600m - 52.97 - (32.0)
1000m - 1:25.21 - (32.2)
1400m - 1:57.57 - (32.3)
1800m - 2:30.00 - (32.4)
2200m - 3:02.75 - (32.7)
2600m - 3:35.80 - (33.0)
3000m - 4:08.85 - (33.0)
6.62 19
5 211 Brittany  Schussler CAN CAN 4:09.03200m - 20.82 - (20.8)
600m - 51.88 - (31.0)
1000m - 1:23.79 - (31.9)
1400m - 1:55.64 - (31.8)
1800m - 2:27.91 - (32.2)
2200m - 3:00.75 - (32.8)
2600m - 3:34.41 - (33.6)
3000m - 4:09.03 - (34.6)
6.80 15
6 239 Francesca  Lollobrigida ITA ITA 4:09.04200m - 20.62 - (20.6)
600m - 52.02 - (31.4)
1000m - 1:23.42 - (31.3)
1400m - 1:56.29 - (32.8)
1800m - 2:29.00 - (32.7)
2200m - 3:02.18 - (33.1)
2600m - 3:35.62 - (33.4)
3000m - 4:09.04 - (33.4)
6.81 11
7 291 Anna  Chernova RUS RUS 4:10.69200m - 21.23 - (21.2)
600m - 53.47 - (32.2)
1000m - 1:25.71 - (32.2)
1400m - 1:57.81 - (32.1)
1800m - 2:30.62 - (32.8)
2200m - 3:03.66 - (33.0)
2600m - 3:37.27 - (33.6)
3000m - 4:10.69 - (33.4)
8.46 9
8 214 Jing  Liu CHN CHN 4:10.75200m - 20.83 - (20.8)
600m - 52.85 - (32.0)
1000m - 1:24.95 - (32.1)
1400m - 1:57.03 - (32.0)
1800m - 2:29.61 - (32.5)
2200m - 3:03.07 - (33.4)
2600m - 3:36.91 - (33.8)
3000m - 4:10.75 - (33.8)
8.52 7
9 202 Anna  Rokita AUT AUT 4:11.21200m - 21.11 - (21.1)
600m - 53.81 - (32.7)
1000m - 1:26.05 - (32.2)
1400m - 1:58.79 - (32.7)
1800m - 2:31.62 - (32.8)
2200m - 3:04.48 - (32.8)
2600m - 3:37.57 - (33.0)
3000m - 4:11.21 - (33.6)
8.98 6
10 231 Isabell  Ost GER GER 4:11.24200m - 20.17 - (20.1)
600m - 52.36 - (32.1)
1000m - 1:24.40 - (32.0)
1400m - 1:57.00 - (32.5)
1800m - 2:29.87 - (32.8)
2200m - 3:03.39 - (33.5)
2600m - 3:37.12 - (33.7)
3000m - 4:11.24 - (34.1)
9.01 5
11 203 Jelena  Peeters BEL BEL 4:11.72200m - 20.43 - (20.4)
600m - 52.22 - (31.7)
1000m - 1:24.68 - (32.4)
1400m - 1:57.43 - (32.7)
1800m - 2:30.94 - (33.5)
2200m - 3:04.49 - (33.5)
2600m - 3:38.23 - (33.7)
3000m - 4:11.72 - (33.4)
9.49 4
12 226 Stephanie  Beckert GER GER 4:12.11200m - 21.61 - (21.6)
600m - 54.12 - (32.5)
1000m - 1:26.49 - (32.3)
1400m - 1:59.28 - (32.7)
1800m - 2:32.30 - (33.0)
2200m - 3:05.62 - (33.3)
2600m - 3:38.97 - (33.3)
3000m - 4:12.11 - (33.1)
9.88 3
13 288 Katarzyna  Wozniak POL POL 4:12.16200m - 20.78 - (20.7)
600m - 52.88 - (32.1)
1000m - 1:25.20 - (32.3)
1400m - 1:57.82 - (32.6)
1800m - 2:30.84 - (33.0)
2200m - 3:04.40 - (33.5)
2600m - 3:38.03 - (33.6)
3000m - 4:12.16 - (34.1)
9.93 2
14 225 Jennifer  Bay GER GER 4:12.92200m - 20.66 - (20.6)
600m - 51.79 - (31.1)
1000m - 1:23.95 - (32.1)
1400m - 1:56.79 - (32.8)
1800m - 2:30.12 - (33.3)
2200m - 3:03.99 - (33.8)
2600m - 3:38.30 - (34.3)
3000m - 4:12.92 - (34.6)
10.69 1
15 266 Shin Young  Yang KOR KOR 4:13.45200m - 21.31 - (21.3)
600m - 54.02 - (32.7)
1000m - 1:26.98 - (32.9)
1400m - 2:00.74 - (33.7)
1800m - 2:34.07 - (33.3)
2200m - 3:07.92 - (33.8)
2600m - 3:40.74 - (32.8)
3000m - 4:13.45 - (32.7)
11.22 0
16 263 Seon-Yeong  Noh KOR KOR 4:13.47200m - 21.32 - (21.3)
600m - 54.12 - (32.7)
1000m - 1:27.12 - (33.0)
1400m - 1:59.90 - (32.7)
1800m - 2:32.73 - (32.8)
2200m - 3:05.74 - (33.0)
2600m - 3:39.15 - (33.4)
3000m - 4:13.47 - (34.3)
11.24 0
17 250 Miho  Takagi JPN JPN 4:13.75200m - 21.22 - (21.2)
600m - 54.29 - (33.0)
1000m - 1:27.63 - (33.3)
1400m - 2:00.69 - (33.0)
1800m - 2:34.02 - (33.3)
2200m - 3:07.46 - (33.4)
2600m - 3:40.90 - (33.4)
3000m - 4:13.75 - (32.8)
11.52 0
18 264 Do-Young  Park KOR KOR 4:14.26200m - 21.10 - (21.1)
600m - 53.47 - (32.3)
1000m - 1:26.26 - (32.7)
1400m - 1:59.24 - (32.9)
1800m - 2:32.19 - (32.9)
2200m - 3:05.72 - (33.5)
2600m - 3:39.77 - (34.0)
3000m - 4:14.26 - (34.4)
12.03 0
19 292 Yevgeniya  Dmitriyeva RUS RUS 4:16.36200m - 21.24 - (21.2)
600m - 53.94 - (32.7)
1000m - 1:26.93 - (32.9)
1400m - 2:00.20 - (33.2)
1800m - 2:33.73 - (33.5)
2200m - 3:07.63 - (33.9)
2600m - 3:41.96 - (34.3)
3000m - 4:16.36 - (34.3)
14.13 0
20 258 Ye Jin  Jun KOR KOR 4:16.70200m - 20.80 - (20.8)
600m - 52.92 - (32.1)
1000m - 1:26.11 - (33.1)
1400m - 2:00.04 - (33.9)
1800m - 2:33.65 - (33.6)
2200m - 3:08.34 - (34.6)
2600m - 3:42.68 - (34.3)
3000m - 4:16.70 - (34.0)
14.47 0
21 302 Petra  Acker USA USA 4:16.86200m - 21.51 - (21.5)
600m - 54.33 - (32.8)
1000m - 1:26.94 - (32.6)
1400m - 2:01.01 - (34.0)
1800m - 2:34.62 - (33.6)
2200m - 3:08.36 - (33.7)
2600m - 3:42.23 - (33.8)
3000m - 4:16.86 - (34.6)
14.63 0
22 283 Camilla-Hallås  Farestveit NOR NOR 4:16.88200m - 21.39 - (21.3)
600m - 54.26 - (32.8)
1000m - 1:27.38 - (33.1)
1400m - 2:00.78 - (33.4)
1800m - 2:34.42 - (33.6)
2200m - 3:08.30 - (33.8)
2600m - 3:42.43 - (34.1)
3000m - 4:16.88 - (34.4)
14.65 0
23 299 Tatiana  Ushakova RUS RUS 4:17.95200m - 21.76 - (21.7)
600m - 54.43 - (32.6)
1000m - 1:27.39 - (32.9)
1400m - 2:00.97 - (33.5)
1800m - 2:34.90 - (33.9)
2200m - 3:08.93 - (34.0)
2600m - 3:43.55 - (34.6)
3000m - 4:17.96 - (34.4)
15.73 0
24 290 Daniela  Oltean ROU ROU 4:18.75200m - 20.98 - (20.9)
600m - 53.16 - (32.1)
1000m - 1:26.51 - (33.3)
1400m - 2:00.00 - (33.4)
1800m - 2:34.29 - (34.2)
2200m - 3:08.66 - (34.3)
2600m - 3:43.70 - (35.0)
3000m - 4:18.75 - (35.0)
16.52 0
25 300 Kaitlyn  McGregor SUI SUI 4:19.83200m - 20.31 - (20.3)
600m - 52.45 - (32.1)
1000m - 1:25.21 - (32.7)
1400m - 1:58.53 - (33.3)
1800m - 2:32.75 - (34.2)
2200m - 3:07.70 - (34.9)
2600m - 3:43.44 - (35.7)
3000m - 4:19.84 - (36.3)
17.61 0
26 306 Theresa  Cliff-Ryan USA USA 4:22.45200m - 21.00 - (21.0)
600m - 53.26 - (32.2)
1000m - 1:25.88 - (32.6)
1400m - 1:59.57 - (33.6)
1800m - 2:34.16 - (34.5)
2200m - 3:09.77 - (35.6)
2600m - 3:46.24 - (36.4)
3000m - 4:22.46 - (36.2)
20.23 0
27 301 Johanna  Östlund SWE SWE 4:22.61200m - 20.84 - (20.8)
600m - 54.51 - (33.6)
1000m - 1:28.34 - (33.8)
1400m - 2:03.01 - (34.6)
1800m - 2:37.52 - (34.5)
2200m - 3:12.48 - (34.9)
2600m - 3:47.22 - (34.7)
3000m - 4:22.61 - (35.3)
20.38 0
28 204 Tatyana  Mikhailova BLR BLR 4:23.91200m - 21.50 - (21.5)
600m - 55.89 - (34.3)
1000m - 1:29.92 - (34.0)
1400m - 2:04.47 - (34.5)
1800m - 2:38.79 - (34.3)
2200m - 3:13.77 - (34.9)
2600m - 3:48.98 - (35.2)
3000m - 4:23.90 - (34.9)
21.68 0
29 312 Saskia  Alusalu EST EST 4:24.66200m - 21.41 - (21.4)
600m - 54.11 - (32.7)
1000m - 1:28.40 - (34.2)
1400m - 2:02.89 - (34.4)
1800m - 2:38.26 - (35.3)
2200m - 3:13.45 - (35.1)
2600m - 3:48.51 - (35.0)
3000m - 4:24.66 - (36.1)
22.43 0
30 256 Yelena  Urvantseva KAZ KAZ 4:25.64200m - 21.64 - (21.6)
600m - 55.55 - (33.9)
1000m - 1:28.78 - (33.2)
1400m - 2:02.36 - (33.5)
1800m - 2:36.55 - (34.1)
2200m - 3:11.54 - (34.9)
2600m - 3:47.64 - (36.0)
3000m - 4:25.63 - (37.9)
23.41 0
31 222 Sara  Bak-Briand DEN DEN 4:27.95200m - 22.16 - (22.1)
600m - 55.61 - (33.4)
1000m - 1:29.55 - (33.9)
1400m - 2:03.93 - (34.3)
1800m - 2:38.63 - (34.6)
2200m - 3:14.31 - (35.6)
2600m - 3:50.99 - (36.6)
3000m - 4:27.95 - (36.9)
25.72 0
32 221 Nikola  Zdráhalova CZE CZE 4:33.06200m - 20.87 - (20.8)
600m - 54.57 - (33.7)
1000m - 1:29.30 - (34.7)
1400m - 2:05.34 - (36.0)
1800m - 2:41.99 - (36.6)
2200m - 3:19.02 - (37.0)
2600m - 3:55.96 - (36.9)
3000m - 4:33.06 - (37.0)
30.83 0